Location: Unspecified
(58.9933°N, 5.6375°E)
Time: 04:56:06
(UTC+01:00)

CZ-3 Stage 3 - Visible Passes

Search period start: 31 January 2015 00:00
Search period end: 10 February 2015 00:00
Orbit: 436 x 34794 km, 31.1° (Epoch: 28 January)

Date Brightness Start Highest point End Pass type
(mag) Time Alt. Az. Time Alt. Az. Time Alt. Az.
31 Jan 7.9 13:33:36 10° SE 19:27:28 50° SSE 21:09:12 34° SE visible
01 Feb 8.3 21:08:14 10° WSW 03:59:10 13° W 03:59:10 13° W visible
02 Feb 7.8 16:19:08 10° S 00:24:42 42° SW 00:32:36 41° SSW visible
03 Feb 7.8 13:22:18 10° SE 19:22:32 50° SSE 21:06:06 33° SE visible
04 Feb 8.2 21:02:45 10° WSW 03:56:01 12° W 03:56:01 12° W visible
05 Feb 7.8 16:12:28 10° SSW 00:19:20 42° SW 00:29:26 40° SSW visible
06 Feb 7.7 13:11:22 10° SE 19:17:33 51° SSE 21:02:53 31° SE visible
07 Feb 8.2 20:57:22 10° WSW 03:52:40 11° W 03:52:46 11° W visible
08 Feb 7.7 16:05:54 10° SSW 00:13:54 41° SW 00:26:09 38° SSW visible
09 Feb 7.7 13:00:49 10° SE 19:12:30 52° SSE 20:59:34 29° SE visible
